Location: Central Falls
(41.8900°N, 71.3929°W)
Time: 14:33:47
(UTC+00:00)

Courier 1B Rocket - Pass Details

Date: 06 December 2023
Orbit: 920 x 1202 km, 28.2° (Epoch: 01 March)

Event Time Altitude Azimuth Distance (km) Brightness Sun altitude
Rises 18:33:45 0° 247° (WSW) 3,671 8.8 20.1°
Reaches altitude 10° 18:37:00 10° 234° (SW) 2,682 8.7 19.8°
Maximum altitude 18:41:53 23° 184° (S) 1,870 8.0 19.4°
Drops below altitude 10° 18:46:38 10° 134° (SE) 2,607 7.5 18.9°
Sets 18:49:45 0° 120° (ESE) 3,544 7.9 18.6°
